OIAH  Gachsaran  Airport

Gachsaran, Iran

Add Bookmark
ICAO OIAH
Type Airport
Status Operational
Latitude
30° 20' 15" N
30.337601
Longitude
50° 49' 40" E
50.827999
Local (DST + 5) UTC (GMT + 4)
Feb 8, 2016 08:05 Feb 8, 2016 16:35
Sunrise-Sunset Local UTC
Begin Civil Twilight 06:26 02:56
Sunrise 06:51 03:21
Sunset 05:50 14:20
End Civil Twilight 06:14 14:44
VFR
VFR
MVFR
MVFR
IFR
IFR
LIFR
LIFR
Unknown
Unavailable

Current Weather

METAR Observed VFR
OIAH 081600Z 00000KT CAVOK 12/M03 Q1019 Mon, Feb 8, 2016 @ 16:00 UTC
(35 Minutes ago)
Visual Flight Rules
Wind Visibility Conditions
Calm 10 km or more
  • No significant weather
Temperatures Readings Precipitation
Current Temp
12°C
54°F
Dewpoint
-3°C
27°F
Humidity 35%
Altimeter 30.09" Hg
Sea Level Pressure 1,019 mb
Field Elevation
738 m
2,421 ft
None Recorded

Additional weather within a 92.6km radius of OIAH

Map ICAO Location
OISY 79.6km E/NE (059°)
VFR
VFR
MVFR
MVFR
IFR
IFR
LIFR
LIFR
Unknown
Unavailable
-
-

CheckWX.com is intended as a tool to help pilots better visualize weather data. It is not intended as a substitute for an official weather briefing obtained from a Flight Service Station. CheckWX.com does not meet the FAA requirements for an official pre-flight weather briefing. Therefore, it's important that pilots still call and obtain an official FSS pre-flight weather briefing.

© 2007-2016 CheckWX.com
16:35:58 UTC